Terug naar catalogus

OV1-19 R/B

ActiefHEO
NORAD 3827·ROCKET BODY·🇺🇸 United States

Gelanceerd Mar 18, 1969 vanaf Vandenberg Space Force Base

Loading…

Volgende Passages (komende 24 uur)

TLE

VersSource: Space-Track

Epoch: Sep 14, 2026, 05:45 UTC

1 03827U 69025E   26257.23959505  .00000744  00000-0  38792-3 0  9999
2 03827 104.7426 198.0613 2609887  53.1243 328.1728  9.70040212  8725

Volg OV1-19 R/B in realtime met AllMySat

Download on the App Store